MUBLCOM

导读

MUBLCOM(多路径超视距通信)卫星由美国国防部高级研究计划局发起,于1999年5月18日发射。这颗小卫星重约45千克,旨在验证军队超视距战场通信方案,论证由64颗低轨卫星组成全球通信星座的可行性,支持保密抗干扰的语音与数据通信,可实现全天候快速部署,为后续全球通信卫星网络发展提供了关键技术验证。

基本信息
目录编号:
25736
目录名称:
MUBLCOM
国际标识:
1999-026B
轨道中心:
EARTH
卫星名称:
MUBLCOM
卫星全名:
--
卫星状态:
在轨 (已飞行9982 天)
发射日期:
1999-05-18 UTC
国别 :
美国 (US)
星等 :
--
该卫星已列入 空间交会检测服务 Space Conjunction Data Service (SCDS) ,当前飞行风险评估等级: 无高风险
轨道信息
数据来源 国际轨道数据 AOE轨道数据
星历时间 2026-09-15T16:26:12+0800
15小时前
查看轨道信息
2026-09-14T23:00:00+0800
1天前
查看轨道信息
半长轴 7079.846km 7079.852km
偏心率 0.0003815 0.0003865
轨道倾角 97.674° 97.674°
近地点辐角 328.864° 329.049°
升交点赤经 111.218° 110.547°
平近点角 31.233° 181.626°
近地点 699.008km 698.978km
远地点 704.41km 704.452km
周期 98.809分钟 98.809分钟
每日圈数 14.573608 14.573591
详细信息
使用方式:
暂无
2D轨道图
3D轨道图
轨道高度分析图
轨道倾角分析图
轨道综合分析图
查看轨道综合分析图
交会数据列表
事件ID 空间交会对象 最接近时刻(TCA) 交会距离 交会风险概率(CRP) 交会风险指数(CRI) 操作
CDM_260918-054402-573603-395321
MUBLCOM (25736)
2026-09-18T
05:44:42+0000
2.241 km
极远距离
2.202316E-6 低风险 0.42
CDM_260916-161502-573604-926025
MUBLCOM (25736)
2026-09-16T
16:15:40+0000
2.617 km
极远距离
1.579684E-6 低风险 0.39
CDM_260916-143602-573604-926025
MUBLCOM (25736)
2026-09-16T
14:36:48+0000
2.980 km
极远距离
1.314629E-6 低风险 0.37
与全量物体交会距离演化趋势 订阅飞行安全评估服务
与全量物体交会风险概率演化趋势 订阅飞行安全评估服务